Location: Unspecified
(0.0000°N, 0.0000°E)
Time: 11:47:11
(UTC+00:00)

Hubble Space Telescope - Pass Details

Date: 12 February 2018
Orbit: 537 x 541 km, 28.5° (Epoch: 19 May)

Event Time Altitude Azimuth Distance (km) Brightness Sun altitude
Exits shadow 03:58:04 18° 123° (ESE) 1,339 3.4 -32.9°
Drops below altitude 10° 03:59:54 10° 100° (E) 1,786 4.3 -32.5°
Sets 04:02:33 0° 84° (E) 2,676 5.3 -31.9°
